Location: Unspecified
(0.0000°N, 0.0000°E)
Time: 16:56:11
(UTC+00:00)

CZ-3B DEB - Pass Details

Date: 16 November 2025
Orbit: 513 x 39779 km, 23.4° (Epoch: 12 December)

Event Time Altitude Azimuth Distance (km) Brightness Sun altitude
Rises 19:04:21 0° 250° (WSW) 9,627 ? -18.8°
Reaches altitude 10° 19:08:51 10° 251° (WSW) 9,918 ? -19.8°
Maximum altitude 20:37:41 60° 281° (W) 24,622 ? -40.3°
Enters shadow 03:44:37 - 293° (WNW) 34,407 ? -28.3°
Exits shadow 05:14:21 - 295° (WNW) 20,773 ? -7.2°
Drops below altitude 10° 06:21:17 10° 114° (ESE) 2,439 ? 8.6°
Sets 06:22:40 0° 114° (ESE) 3,059 ? 8.9°
